Location: B�rgermoos
(47.6500°N, 9.0667°E)
Time: 22:39:58
(UTC+00:00)

SR - All Passes

Search period start: 28 July 2021 00:00
Search period end: 07 August 2021 00:00
Orbit: 577 x 878 km, 66.7° (Epoch: 28 July)

Date Brightness Start Highest point End Pass type
(mag) Time Alt. Az. Time Alt. Az. Time Alt. Az.
28 Jul - 05:25:45 10° SSE 05:30:23 25° ESE 05:34:51 10° ENE daylight
28 Jul - 07:06:19 10° SW 07:12:07 66° NW 07:17:35 10° NNE daylight
28 Jul - 08:51:13 10° WNW 08:55:10 19° NNW 08:58:57 10° NNE daylight
28 Jul - 12:22:00 10° N 12:24:03 12° NNE 12:26:04 10° NE daylight
28 Jul - 14:03:02 10° NNW 14:07:40 37° NE 14:11:56 10° ESE daylight
28 Jul - 15:45:19 10° NW 15:49:42 35° WSW 15:53:45 10° S daylight
29 Jul - 04:38:21 10° SE 04:40:59 13° ESE 04:43:33 10° ENE daylight
29 Jul - 06:16:26 10° SSW 06:22:16 74° ESE 06:27:47 10° NE daylight
29 Jul - 08:00:01 10° W 08:04:51 27° NW 08:09:27 10° NNE daylight
29 Jul - 09:47:22 10° NNW 09:48:46 11° NNW 09:50:08 10° N daylight
29 Jul - 13:13:27 10° NNW 13:17:28 23° NE 13:21:13 10° E daylight
29 Jul - 14:55:12 10° NW 15:00:05 71° WSW 15:04:32 10° SSE daylight
30 Jul - 05:27:08 10° S 05:32:34 42° ESE 05:37:44 10° NE daylight
30 Jul - 07:09:13 10° WSW 07:14:41 42° NW 07:19:51 10° NNE daylight
30 Jul - 08:55:17 10° NW 08:58:09 14° NNW 09:00:57 10° N daylight
30 Jul - 12:23:59 10° N 12:27:05 16° NNE 12:30:01 10° ENE daylight
30 Jul - 14:05:21 10° NNW 14:10:15 61° NE 14:14:43 10° SE daylight
30 Jul - 15:48:26 10° WNW 15:51:43 19° WSW 15:54:51 10° SSW daylight
31 Jul - 04:38:32 10° SSE 04:43:00 23° ESE 04:47:20 10° ENE daylight
31 Jul - 06:18:54 10° SW 06:24:42 70° NW 06:30:09 10° NNE daylight
31 Jul - 08:03:41 10° WNW 08:07:41 19° NNW 08:11:32 10° NNE daylight
31 Jul - 11:34:42 10° N 11:36:33 12° NNE 11:38:20 10° NE daylight
31 Jul - 13:15:40 10° NNW 13:20:13 35° NE 13:24:24 10° ESE daylight
31 Jul - 14:57:51 10° NW 15:02:17 37° WSW 15:06:23 10° S daylight
01 Aug - 03:51:24 10° SE 03:53:37 12° ESE 03:55:47 10° E daylight
01 Aug - 05:29:04 10° SSW 05:34:52 70° ESE 05:40:19 10° NE daylight
01 Aug - 07:12:30 10° W 07:17:23 28° NW 07:22:01 10° NNE daylight
01 Aug - 08:59:46 10° NNW 09:01:15 11° NNW 09:02:43 10° N daylight
01 Aug - 12:26:06 10° NNW 12:29:59 22° NE 12:33:37 10° E daylight
01 Aug - 14:07:47 10° NW 14:12:39 76° WSW 14:17:05 10° SSE daylight
02 Aug - 04:39:49 10° S 04:45:10 39° ESE 04:50:16 10° NE daylight
02 Aug - 06:21:45 10° WSW 06:27:14 44° NW 06:32:25 10° NNE daylight
02 Aug - 08:07:42 10° WNW 08:10:39 14° NNW 08:13:31 10° N daylight
02 Aug - 11:36:38 10° N 11:39:35 15° NNE 11:42:22 10° ENE daylight
02 Aug - 13:17:57 10° NNW 13:22:47 57° NE 13:27:13 10° SE daylight
02 Aug - 15:00:54 10° WNW 15:04:20 20° WSW 15:07:34 10° SSW daylight
03 Aug - 03:51:19 10° SSE 03:55:37 22° ESE 03:59:47 10° ENE daylight
03 Aug - 05:31:28 10° SW 05:37:16 74° NW 05:42:43 10° NNE daylight
03 Aug - 07:16:08 10° W 07:20:13 20° NNW 07:24:06 10° NNE daylight
03 Aug - 10:47:25 10° N 10:49:01 11° NNE 10:50:35 10° NE daylight
03 Aug - 12:28:17 10° NNW 12:32:44 33° NE 12:36:51 10° ESE daylight
03 Aug - 14:10:24 10° NW 14:14:52 40° WSW 14:19:00 10° S daylight
04 Aug - 03:04:34 10° ESE 03:06:15 11° ESE 03:07:54 10° E visible
04 Aug - 04:41:42 10° SSW 04:47:27 66° ESE 04:52:52 10° NE daylight
04 Aug - 06:24:58 10° W 06:29:56 29° NW 06:34:36 10° NNE daylight
04 Aug - 08:12:09 10° NW 08:13:44 11° NNW 08:15:17 10° N daylight
04 Aug - 11:38:43 10° NNW 11:42:29 21° NE 11:46:01 10° E daylight
04 Aug - 13:20:21 10° NW 13:25:12 81° SW 13:29:38 10° SSE daylight
04 Aug - 15:05:44 10° W 15:06:13 10° WSW 15:06:43 10° WSW daylight
05 Aug - 03:52:30 10° S 03:57:46 37° ESE 04:02:46 10° NE daylight
05 Aug - 05:34:17 10° WSW 05:39:48 46° NW 05:44:59 10° NNE daylight
05 Aug - 07:20:07 10° WNW 07:23:09 15° NNW 07:26:06 10° N daylight
05 Aug - 10:49:18 10° N 10:52:04 15° NNE 10:54:43 10° ENE daylight
05 Aug - 12:30:33 10° NNW 12:35:20 54° NE 12:39:43 10° SE daylight
05 Aug - 14:13:22 10° WNW 14:16:55 21° WSW 14:20:17 10° SSW daylight
06 Aug - 03:04:07 10° SSE 03:08:14 20° ESE 03:12:13 10° ENE visible
06 Aug - 04:44:03 10° SW 04:49:50 78° NW 04:55:16 10° NNE daylight
06 Aug - 06:28:35 10° W 06:32:43 21° NW 06:36:41 10° NNE daylight
06 Aug - 10:00:10 10° N 10:01:30 11° NNE 10:02:47 10° NNE daylight
06 Aug - 11:40:53 10° NNW 11:45:15 31° NE 11:49:17 10° ESE daylight
06 Aug - 13:22:56 10° NW 13:27:26 43° WSW 13:31:36 10° S daylight
